Date String (YYYY-MM-DD hh:mm:ss) UTC,Instrument flags,Ambient pressure (hPa),Sample flow (lpm),Bypass flow (lpm),Sample temperature (°C),Ambient temperature (°C),ASC tube jacket temperature (°C),LED temperature (°C),Box temperature (°C),Sample RH (%),Span deviation,Mass concentration (μg/m³),Mass concentration (μg/m³),Mass concentration (μg/m³)
DateTimeUTC,F1_M11,P_M11,Q1_M11,Q2_M11,T1_M11,T2_M11,T3_M11,T4_M11,T5_M11,U1_M11,ZSPAN_M11,X2_M11,X0_M11,X1_M11
2021-09-28 16:00:00,,0821.7,5.01,0.00,30.1,29.2,00.0,39.0,31.9,19.5,0000.9,0006.84,0030.15,0004.11
2021-09-28 16:01:00,,0821.7,4.98,0.00,30.1,28.7,00.0,39.0,31.8,19.2,0001.7,0006.79,0029.48,0004.09
2021-09-28 16:02:00,,0821.6,5.01,0.00,30.0,27.0,00.0,39.0,31.3,19.4,0000.8,0006.71,0029.33,0004.07
2021-09-28 16:03:00,,0821.5,5.00,0.00,29.8,26.5,00.0,39.0,31.2,19.5,0000.6,0006.59,0028.93,0004.04
2021-09-28 16:04:00,,0821.6,4.99,0.00,29.8,26.8,00.0,39.0,31.2,19.4,0001.1,0006.41,0026.55,0003.99
2021-09-28 16:05:00,,0821.5,5.00,0.00,29.7,27.2,00.0,38.9,31.3,19.7,0001.0,0006.32,0025.30,0003.94
2021-09-28 16:06:00,,0821.5,5.00,0.00,29.7,27.6,00.0,38.9,31.4,19.7,0000.6,0006.20,0024.45,0003.91
2021-09-28 16:07:00,,0821.6,5.00,0.00,29.8,27.9,00.0,38.9,31.4,19.6,0000.5,0006.03,0022.60,0003.87
2021-09-28 16:08:00,,0821.5,5.00,0.00,29.8,28.2,00.0,38.9,31.5,20.3,0000.3,0006.07,0022.80,0003.88
2021-09-28 16:09:00,,0821.5,5.00,0.00,29.8,28.4,00.0,38.9,31.6,20.3,0001.2,0006.24,0022.10,0003.90
2021-09-28 16:10:00,,0821.5,4.99,0.00,29.9,28.6,00.0,38.9,31.6,20.1,0001.6,0006.42,0022.29,0003.95
2021-09-28 16:11:00,,0821.5,5.02,0.00,29.9,28.8,00.0,38.9,31.7,20.0,0000.7,0006.61,0024.65,0003.99
2021-09-28 16:12:00,,0821.5,4.99,0.00,29.9,28.9,00.0,38.9,31.8,19.7,0000.3,0006.78,0027.33,0004.04
2021-09-28 16:13:00,,0821.4,5.00,0.00,30.0,29.0,00.0,38.9,31.8,19.5,0001.5,0006.89,0028.53,0004.08
2021-09-28 16:14:00,,0821.4,5.01,0.00,30.0,28.9,00.0,39.0,31.8,18.7,0001.8,0006.89,0028.48,0004.08
2021-09-28 16:15:00,,0821.4,5.00,0.00,30.0,27.4,00.0,39.0,31.4,18.9,0002.3,0006.89,0029.30,0004.07
2021-09-28 16:16:00,,0821.4,5.00,0.00,29.8,26.3,00.0,38.9,31.2,19.1,0002.4,0006.92,0030.10,0004.08
2021-09-28 16:17:00,,0821.4,5.01,0.00,29.7,26.6,00.0,38.9,31.2,18.7,0002.4,0006.81,0029.53,0004.06
2021-09-28 16:18:00,,0821.4,5.00,0.00,29.7,27.0,00.0,38.9,31.3,18.7,0002.8,0006.72,0029.26,0004.03
2021-09-28 16:19:00,,0821.4,5.00,0.00,29.7,27.5,00.0,38.8,31.3,19.1,0002.7,0006.58,0028.54,0003.99
2021-09-28 16:20:00,,0821.4,4.99,0.00,29.7,27.8,00.0,38.8,31.4,19.2,0001.9,0006.37,0027.55,0003.93
2021-09-28 16:21:00,,0821.4,5.01,0.00,29.7,28.1,00.0,38.8,31.5,19.2,0001.7,0006.14,0026.05,0003.86
2021-09-28 16:22:00,,0821.4,4.99,0.00,29.8,28.4,00.0,38.8,31.5,20.1,0002.4,0006.01,0025.55,0003.83
2021-09-28 16:23:00,,0821.4,5.01,0.00,29.8,28.5,00.0,38.8,31.6,20.5,0002.9,0005.99,0024.12,0003.81
2021-09-28 16:24:00,,0821.4,5.00,0.00,29.8,28.7,00.0,38.8,31.7,20.3,0003.4,0006.03,0023.62,0003.81
2021-09-28 16:25:00,,0821.4,4.99,0.00,29.9,28.8,00.0,38.8,31.8,20.2,0003.1,0006.12,0023.39,0003.84
2021-09-28 16:26:00,,0821.4,5.00,0.00,29.9,29.0,00.0,38.9,31.8,20.1,0002.6,0006.20,0025.13,0003.87
2021-09-28 16:27:00,,0821.4,5.01,0.00,30.0,29.1,00.0,38.9,31.9,19.9,0002.0,0006.29,0025.72,0003.90
2021-09-28 16:28:00,,0821.3,4.99,0.00,30.0,28.8,00.0,38.9,31.8,19.8,0002.3,0006.42,0027.25,0003.94
2021-09-28 16:29:00,,0821.4,5.01,0.00,29.9,27.1,00.0,38.9,31.4,19.6,0002.7,0006.59,0027.80,0004.01
2021-09-28 16:30:00,,0821.3,5.00,0.00,29.8,26.3,00.0,38.9,31.1,19.9,0002.3,0006.67,0028.67,0004.05
2021-09-28 16:31:00,,0821.3,5.00,0.00,29.7,26.6,00.0,38.9,31.2,20.4,0002.2,0006.70,0029.72,0004.07
2021-09-28 16:32:00,,0821.3,4.99,0.00,29.7,27.0,00.0,38.8,31.2,20.5,0001.8,0006.87,0031.62,0004.10
2021-09-28 16:33:00,,0821.3,4.99,0.00,29.7,27.5,00.0,38.8,31.3,20.7,0001.3,0006.87,0030.09,0004.12
2021-09-28 16:34:00,,0821.3,5.01,0.00,29.7,27.8,00.0,38.8,31.4,20.7,0001.4,0006.88,0029.97,0004.16
2021-09-28 16:35:00,,0821.3,4.99,0.00,29.7,28.1,00.0,38.8,31.5,20.7,0000.6,0006.94,0031.25,0004.17
2021-09-28 16:36:00,,0821.3,5.01,0.00,29.7,28.4,00.0,38.8,31.5,20.7,0000.8,0007.03,0032.02,0004.19
2021-09-28 16:37:00,,0821.2,5.00,0.00,29.8,28.6,00.0,38.8,31.6,20.5,0001.0,0007.13,0029.86,0004.21
2021-09-28 16:38:00,,0821.3,4.99,0.00,29.8,28.7,00.0,38.8,31.7,20.4,0001.2,0007.19,0028.25,0004.23
2021-09-28 16:39:00,,0821.2,5.00,0.00,29.9,28.9,00.0,38.8,31.7,20.4,0001.3,0007.23,0027.33,0004.23
2021-09-28 16:40:00,,0821.2,5.01,0.00,29.9,29.0,00.0,38.8,31.8,20.1,0000.7,0007.25,0028.17,0004.23
2021-09-28 16:41:00,,0821.2,4.99,0.00,30.0,29.0,00.0,38.9,31.8,20.0,0000.7,0007.29,0027.69,0004.25
2021-09-28 16:42:00,,0821.2,5.00,0.00,29.9,27.8,00.0,38.9,31.5,20.1,0001.1,0007.34,0027.73,0004.29
2021-09-28 16:43:00,,0821.2,5.00,0.00,29.8,26.4,00.0,38.8,31.1,20.4,0001.1,0007.26,0026.77,0004.30
2021-09-28 16:44:00,,0821.2,5.01,0.00,29.7,26.5,00.0,38.8,31.1,20.8,0001.4,0007.26,0026.57,0004.31
2021-09-28 16:45:00,,0821.2,5.01,0.00,29.6,26.9,00.0,38.8,31.2,20.9,0001.5,0007.29,0026.05,0004.30
2021-09-28 16:46:00,,0821.2,4.99,0.00,29.6,27.4,00.0,38.8,31.3,21.0,0001.8,0007.30,0026.20,0004.31
2021-09-28 16:47:00,,0821.2,4.99,0.00,29.6,27.7,00.0,38.8,31.3,21.1,0001.7,0007.21,0027.54,0004.30
2021-09-28 16:48:00,,0821.1,5.01,0.00,29.7,28.1,00.0,38.7,31.4,21.3,0001.6,0007.24,0028.80,0004.29
2021-09-28 16:49:00,,0821.1,4.99,0.00,29.7,28.3,00.0,38.7,31.5,21.0,0001.9,0007.22,0030.89,0004.30
2021-09-28 16:50:00,,0821.2,5.01,0.00,29.7,28.6,00.0,38.8,31.6,21.0,0001.7,0007.23,0031.18,0004.32
2021-09-28 16:51:00,,0821.2,4.99,0.00,29.8,28.7,00.0,38.8,31.7,20.7,0001.6,0007.32,0030.56,0004.32
2021-09-28 16:52:00,,0821.2,5.00,0.00,29.8,28.9,00.0,38.8,31.8,20.6,0001.6,0007.42,0031.56,0004.33
2021-09-28 16:53:00,,0821.1,5.01,0.00,29.9,29.0,00.0,38.8,31.8,20.5,0001.6,0007.50,0031.91,0004.34
2021-09-28 16:54:00,,0821.1,4.99,0.00,29.9,28.9,00.0,38.8,31.8,20.9,0001.7,0007.61,0033.23,0004.37
2021-09-28 16:55:00,,0821.1,5.00,0.00,29.9,27.3,00.0,38.8,31.4,20.7,0001.9,0007.75,0035.19,0004.41
2021-09-28 16:56:00,,0821.2,5.00,0.00,29.7,26.2,00.0,38.8,31.0,20.8,0002.2,0007.75,0035.46,0004.44
2021-09-28 16:57:00,,0821.1,5.00,0.00,29.6,26.5,00.0,38.8,31.1,21.0,0001.9,0007.72,0033.34,0004.47
2021-09-28 16:58:00,,0821.1,5.00,0.00,29.6,26.9,00.0,38.8,31.1,21.2,0002.3,0007.77,0031.56,0004.50
2021-09-28 16:59:00,,0821.1,5.00,0.00,29.6,27.4,00.0,38.7,31.2,21.2,0002.1,0007.74,0030.76,0004.54
